Flag for Hungary Weather past 2 weeks in Szeged, Hungary

Now
60 °F

Passing clouds.


Feels Like: 60 °F
Forecast: 52 / 81 °F
Wind: 1 mph from North

Location: Szeged

Current Time: Aug 29, 2014 at 10:10:17 PM

Latest Report: Aug 29, 2014 at 9:00 PM


Visibility: 28 mi

Pressure: 30.09 "Hg

Humidity: 76%

Dew point: 52 °F

Location of SzegedLocation

Historic Weather in Szeged — Graph

°F

Szeged temperature yesterday

Maximum temperature yesterday: 74 °F (at 4:00 PM)
Minimum temperature yesterday: 47 °F (at 6:00 AM)
Average temperature yesterday: 61 °F

Past Weeks' High & Low Weather Summary

 TemperatureHumidityPressure
High84 °F (Aug 20, 3:00 PM)95% (Aug 15, 7:00 AM)30.16 "Hg (Aug 15, 7:00 AM)
Low47 °F (Aug 28, 6:00 AM)29% (Aug 25, 5:00 PM)29.78 "Hg (Aug 27, 5:00 AM)
Average65 °F68%29.97 "Hg
* Reported Aug 14 8:00 PM — Aug 29 8:00 PM, Szeged, Weather by CustomWeather, © 2014

Note: Actual official high and low records may vary slightly from our data, if they occured in-between our weather recording intervals... More about our weather records

Advertising

Szeged weather history for previous 24 hours

 ConditionsComfort  
Time TempWeatherWind HumidityBarometerVisibility
8:00 PM
Aug 29
63 °FPassing clouds.1 mph73%30.09 "Hg28 mi
7:00 PM74 °FPartly sunny.1 mph39%30.08 "Hg31 mi
6:00 PM75 °FScattered clouds.1 mph32%30.08 "Hg31 mi
5:00 PM77 °FScattered clouds.1 mph32%30.08 "Hg31 mi
4:00 PM77 °FScattered clouds.2 mph32%30.10 "Hg31 mi
3:00 PM75 °FPassing clouds.2 mph37%30.11 "Hg31 mi
2:00 PM75 °FPassing clouds.3 mph34%30.12 "Hg34 mi
1:00 PM73 °FPassing clouds.2 mph37%30.14 "Hg25 mi
12:00 PM73 °FPassing clouds.2 mph36%30.15 "Hg25 mi
11:00 AM71 °FSunny.2 mph38%30.16 "Hg19 mi
10:00 AM69 °FSunny.1 mph50%30.16 "Hg19 mi
9:00 AM63 °FPassing clouds.1 mph72%30.16 "Hg19 mi
8:00 AM57 °FPassing clouds.1 mph88%30.16 "Hg12 mi
7:00 AM49 °FPassing clouds.1 mph94%30.16 "Hg11 mi
6:00 AM48 °FFog.1 mph94%30.16 "Hg11 mi
5:00 AM47 °FClear.1 mph93%30.15 "Hg9 mi
4:00 AM48 °FClear.1 mph93%30.15 "Hg16 mi
3:00 AM49 °FClear.No wind93%30.14 "Hg16 mi
2:00 AM51 °FClear.1 mph93%30.15 "Hg19 mi
1:00 AM51 °FClear.1 mph91%30.15 "Hg19 mi
12:00 AM54 °FClear.1 mph92%30.14 "Hg22 mi
11:00 PM
Aug 28
54 °FClear.1 mph92%30.14 "Hg25 mi
10:00 PM54 °FClear.No wind90%30.14 "Hg25 mi
Weather by CustomWeather, © 2014

See weather overviewHow to use our weather pages